Location: Beetenbrück
(52.8113°N, 9.5946°E)
Time: 22:24:39
(UTC+00:00)

Cosmos 1048 Rocket - Pass Details

Date: 14 April 2026
Orbit: 739 x 786 km, 74.0° (Epoch: 12 May)

Event Time Altitude Azimuth Distance (km) Brightness Sun altitude
Rises 20:05:38 0° 331° (NNW) 3,190 8.6 -14.9°
Reaches altitude 10° 20:08:01 10° 328° (NNW) 2,265 7.6 -15.2°
Maximum altitude 20:13:02 57° 251° (WSW) 876 4.4 -15.7°
Enters shadow 20:17:00 16° 176° (S) 1,873 5.6 -16.2°
